WB6DHP Weather Reports


time (UTC)temp
C
wind
direction
speed
KPH
gust
KPH
rain 1hr
cm
rain 24hr
cm
rain mn
cm
humidity
%
barometer
mb
20220124110016 3 236 0.0 0.0 0.00 0.00 0.00 95 1022.7
20220124105018 3 236 0.0 0.0 0.00 0.00 0.00 94 1022.8
20220124104015 3 236 0.0 0.0 0.00 0.00 0.00 94 1022.9
20220124103017 3 236 0.0 0.0 0.00 0.00 0.00 94 1022.9
20220124102016 3 236 0.0 0.0 0.00 0.00 0.00 94 1023.1
20220124101016 3 236 0.0 0.0 0.00 0.00 0.00 94 1023.0
20220124100015 4 236 0.0 0.0 0.00 0.00 0.00 93 1023.1
20220124095017 4 236 0.0 0.0 0.00 0.00 0.00 93 1023.1
20220124094017 4 236 0.0 0.0 0.00 0.00 0.00 93 1023.0
20220124093018 5 236 0.0 0.0 0.00 0.00 0.00 92 1023.0
20220124092017 5 236 0.0 0.0 0.00 0.00 0.00 92 1023.1
20220124091016 5 236 0.0 0.0 0.00 0.00 0.00 92 1023.1
20220124090016 5 236 0.0 0.0 0.00 0.00 0.00 92 1023.1
20220124085016 5 236 0.0 0.0 0.00 0.00 0.00 91 1023.2
20220124084016 5 236 0.0 0.0 0.00 0.00 0.00 91 1023.3
20220124083017 5 236 0.0 0.0 0.00 0.00 0.00 90 1023.4
20220124082016 5 236 0.0 0.0 0.00 0.00 0.00 90 1023.5
20220124081017 6 236 0.0 0.0 0.00 0.00 0.00 89 1023.6
20220124080015 6 236 0.0 0.0 0.00 0.00 0.00 88 1023.6
20220124075018 6 236 0.0 0.0 0.00 0.00 0.00 87 1023.6
20220124074015 6 236 0.0 0.0 0.00 0.00 0.00 88 1023.7
20220124073017 6 236 0.0 0.0 0.00 0.00 0.00 88 1023.8
20220124072016 6 236 0.0 0.0 0.00 0.00 0.00 88 1023.8
20220124071016 6 236 0.0 0.0 0.00 0.00 0.00 88 1023.8
20220124070017 6 236 0.0 0.0 0.00 0.00 0.00 87 1023.8
20220124065017 7 236 0.0 0.0 0.00 0.00 0.00 87 1023.7
20220124064017 7 236 0.0 0.0 0.00 0.00 0.00 87 1023.8
20220124063016 7 236 0.0 0.0 0.00 0.00 0.00 88 1023.7
20220124062017 7 236 0.0 0.0 0.00 0.00 0.00 88 1023.7
20220124061015 7 236 0.0 0.0 0.00 0.00 0.00 87 1023.8
20220124060016 7 236 0.0 0.0 0.00 0.00 0.00 86 1023.8
20220124055017 7 236 0.0 0.0 0.00 0.00 0.00 86 1023.8
20220124054018 7 236 0.0 0.0 0.00 0.00 0.00 86 1023.7
20220124053017 7 236 0.0 1.6 0.00 0.00 0.00 85 1023.7
20220124052014 7 236 1.6 3.2 0.00 0.00 0.00 85 1023.8
20220124051017 8 236 1.6 3.2 0.00 0.00 0.00 85 1023.8
20220124050015 8 236 0.0 0.0 0.00 0.00 0.00 85 1023.8
20220124045016 7 236 0.0 0.0 0.00 0.00 0.00 86 1023.7
20220124044018 8 236 0.0 0.0 0.00 0.00 0.00 85 1023.6
20220124043016 8 236 0.0 0.0 0.00 0.00 0.00 84 1023.6
20220124042018 8 236 0.0 0.0 0.00 0.00 0.00 83 1023.6
20220124041018 8 236 0.0 0.0 0.00 0.00 0.00 83 1023.6
20220124040015 9 236 0.0 0.0 0.00 0.00 0.00 82 1023.5
20220124035016 9 236 1.6 3.2 0.00 0.00 0.00 81 1023.5
20220124034017 9 236 0.0 0.0 0.00 0.00 0.00 81 1023.5
20220124033016 10 236 0.0 0.0 0.00 0.00 0.00 79 1023.5
20220124032017 10 236 1.6 3.2 0.00 0.00 0.00 78 1023.5
20220124031017 10 236 1.6 3.2 0.00 0.00 0.00 77 1023.5
20220124030037 11 236 0.0 1.6 0.00 0.00 0.00 76 1023.4
20220124025019 11 236 0.0 3.2 0.00 0.00 0.00 75 1023.5
20220124024015 11 236 1.6 3.2 0.00 0.00 0.00 74 1023.4
20220124023017 12 236 1.6 3.2 0.00 0.00 0.00 73 1023.4
20220124022017 12 236 0.0 3.2 0.00 0.00 0.00 71 1023.3
20220124021015 12 236 0.0 4.8 0.00 0.00 0.00 70 1023.3
20220124020014 13 236 1.6 3.2 0.00 0.00 0.00 68 1023.2
20220124015016 14 236 1.6 4.8 0.00 0.00 0.00 66 1023.1
20220124014016 15 236 1.6 4.8 0.00 0.00 0.00 62 1023.1
20220124013018 16 325 1.6 3.2 0.00 0.00 0.00 57 1023.1
20220124012017 17 325 1.6 3.2 0.00 0.00 0.00 53 1023.0
20220124011017 18 325 1.6 3.2 0.00 0.00 0.00 50 1023.0
20220124010015 18 325 0.0 3.2 0.00 0.00 0.00 48 1023.1
20220124005016 18 325 1.6 4.8 0.00 0.00 0.00 45 1023.1
20220124004015 19 40 1.6 4.8 0.00 0.00 0.00 45 1023.1
20220124003017 19 348 3.2 4.8 0.00 0.00 0.00 44 1023.0
20220124002016 19 284 3.2 8.0 0.00 0.00 0.00 44 1023.0
20220124001017 20 358 3.2 4.8 0.00 0.00 0.00 43 1022.9
20220124000017 19 5 1.6 9.7 0.00 0.00 0.00 45 1022.9
20220123235017 20 339 3.2 8.0 0.00 0.00 0.00 44 1022.9
20220123234015 20 352 3.2 8.0 0.00 0.00 0.00 45 1023.0
20220123233017 19 293 3.2 8.0 0.00 0.00 0.00 44 1023.1
20220123232016 20 302 3.2 8.0 0.00 0.00 0.00 44 1023.1
20220123231016 20 344 3.2 8.0 0.00 0.00 0.00 42 1023.1
20220123230015 20 317 3.2 4.8 0.00 0.00 0.00 43 1023.1
20220123225016 19 349 4.8 8.0 0.00 0.00 0.00 44 1023.2
20220123224015 19 53 3.2 11.3 0.00 0.00 0.00 45 1023.2
20220123223016 19 303 3.2 9.7 0.00 0.00 0.00 44 1023.2
20220123222015 19 290 4.8 9.7 0.00 0.00 0.00 45 1023.3
20220123221016 19 341 4.8 11.3 0.00 0.00 0.00 45 1023.3
20220123220013 18 307 3.2 4.8 0.00 0.00 0.00 47 1023.2
20220123215016 18 355 1.6 8.0 0.00 0.00 0.00 47 1023.3
20220123214016 17 341 3.2 8.0 0.00 0.00 0.00 49 1023.3
20220123213017 17 281 3.2 11.3 0.00 0.00 0.00 48 1023.5
20220123212016 17 13 3.2 11.3 0.00 0.00 0.00 50 1023.6
20220123211016 17 316 3.2 12.9 0.00 0.00 0.00 50 1023.7
20220123210015 17 304 3.2 11.3 0.00 0.00 0.00 49 1023.9
20220123205021 17 341 1.6 14.5 0.00 0.00 0.00 50 1024.1
20220123204015 17 346 6.4 14.5 0.00 0.00 0.00 49 1024.3
20220123203017 17 317 6.4 14.5 0.00 0.00 0.00 50 1024.5
20220123202016 16 335 4.8 14.5 0.00 0.00 0.00 50 1024.6
20220123201016 16 318 4.8 11.3 0.00 0.00 0.00 52 1024.6
20220123200017 16 17 3.2 14.5 0.00 0.00 0.00 55 1024.6
20220123195017 15 321 8.0 14.5 0.00 0.00 0.00 53 1024.6
20220123194016 15 308 4.8 9.7 0.00 0.00 0.00 55 1024.7
20220123193016 15 279 3.2 11.3 0.00 0.00 0.00 53 1024.8
20220123192016 15 336 3.2 8.0 0.00 0.00 0.00 54 1025.0
20220123191017 15 2 3.2 14.5 0.00 0.00 0.00 56 1025.1
20220123190014 15 356 3.2 9.7 0.00 0.00 0.00 57 1025.1
20220123185016 14 304 4.8 9.7 0.00 0.00 0.00 57 1025.1
20220123184016 14 16 4.8 8.0 0.00 0.00 0.00 58 1025.1
20220123183017 13 329 3.2 4.8 0.00 0.00 0.00 58 1025.1
20220123182016 13 19 3.2 4.8 0.00 0.00 0.00 60 1025.1
20220123181016 13 36 1.6 4.8 0.00 0.00 0.00 61 1024.9
20220123180014 13 101 0.0 4.8 0.00 0.00 0.00 61 1024.7
20220123175016 12 103 3.2 4.8 0.00 0.00 0.00 64 1024.7
20220123174015 11 179 0.0 4.8 0.00 0.00 0.00 67 1024.7
20220123173017 11 177 3.2 4.8 0.00 0.00 0.00 68 1024.7
20220123172016 10 90 0.0 3.2 0.00 0.00 0.00 73 1024.7
20220123171016 9 90 1.6 4.8 0.00 0.00 0.00 75 1024.7
20220123170013 8 186 0.0 0.0 0.00 0.00 0.00 81 1024.7
20220123165017 7 187 0.0 0.0 0.00 0.00 0.00 85 1024.6
20220123164014 6 200 0.0 0.0 0.00 0.00 0.00 88 1024.6
20220123163016 5 200 0.0 0.0 0.00 0.00 0.00 93 1024.4
20220123162016 4 200 0.0 0.0 0.00 0.00 0.00 95 1024.4
20220123161016 3 200 0.0 0.0 0.00 0.00 0.00 95 1024.5
20220123160015 2 200 0.0 0.0 0.00 0.00 0.00 96 1024.5
20220123155014 2 200 0.0 0.0 0.00 0.00 0.00 95 1024.5
20220123154015 2 200 0.0 0.0 0.00 0.00 0.00 95 1024.4
20220123153016 2 200 0.0 0.0 0.00 0.00 0.00 95 1024.5
20220123152013 2 200 0.0 0.0 0.00 0.00 0.00 94 1024.5
20220123151015 2 200 0.0 0.0 0.00 0.00 0.00 93 1024.2
20220123150014 2 200 0.0 0.0 0.00 0.00 0.00 94 1024.1
20220123145015 2 200 0.0 0.0 0.00 0.00 0.00 93 1024.0
20220123144015 2 200 0.0 0.0 0.00 0.00 0.00 93 1024.0
20220123143018 2 200 0.0 0.0 0.00 0.00 0.00 93 1024.0
20220123142015 2 200 0.0 0.0 0.00 0.00 0.00 94 1023.9
20220123141015 2 200 0.0 0.0 0.00 0.00 0.00 93 1023.9
20220123140015 3 200 0.0 0.0 0.00 0.00 0.00 93 1023.8
20220123135015 2 200 0.0 0.0 0.00 0.00 0.00 93 1023.8
20220123134014 2 200 0.0 0.0 0.00 0.00 0.00 92 1023.7
20220123133015 3 200 0.0 0.0 0.00 0.00 0.00 91 1023.4
20220123132016 3 200 0.0 0.0 0.00 0.00 0.00 92 1023.2
20220123131017 3 200 0.0 0.0 0.00 0.00 0.00 92 1023.2
20220123130016 3 200 0.0 0.0 0.00 0.00 0.00 91 1023.1
20220123125015 3 200 0.0 0.0 0.00 0.00 0.00 91 1023.2
20220123124014 3 200 0.0 0.0 0.00 0.00 0.00 90 1023.1
20220123123016 3 200 0.0 0.0 0.00 0.00 0.00 91 1023.0
20220123122014 3 119 0.0 0.0 0.00 0.00 0.00 92 1023.1
20220123121014 3 119 0.0 0.0 0.00 0.00 0.00 92 1022.9
20220123120015 3 119 0.0 0.0 0.00 0.00 0.00 92 1023.0
20220123115015 3 119 0.0 0.0 0.00 0.00 0.00 91 1022.9
20220123114014 3 119 0.0 0.0 0.00 0.00 0.00 91 1022.9
20220123113016 3 119 0.0 0.0 0.00 0.00 0.00 91 1022.9
20220123112013 3 119 0.0 0.0 0.00 0.00 0.00 91 1022.7
20220123111014 3 119 0.0 0.0 0.00 0.00 0.00 91 1022.7